Weather History for Taylorville, IL

Change the Weather History Date:

Friday, November 30, 2012

  Actual Average (KSPI) Record (KSPI)
Temperature  
Mean Temperature 48 °F 36 °F  
Max Temperature 60 °F 44 °F 65 °F (1899)
Min Temperature 35 °F 28 °F -3 °F (1964)
Degree Days  
Heating Degree Days 18 29  
Month to date heating degree days 660  
Since 1 July heating degree days 1068  
Cooling Degree Days 0 0  
Month to date cooling degree days 1  
Year to date cooling degree days 1122  
Moisture  
Dew Point 35 °F    
Average Humidity 66    
Maximum Humidity 87    
Minimum Humidity 42    
Precipitation  
Precipitation 0.00 in 0.11 in 1.82 in (2006)
Month to date precipitation 3.21  
Year to date precipitation 34.91  
Snow  
Snow 0.00 in 0.10 in 3.40 in (1886)
Month to date snowfall 0.6  
Since 1 July snowfall 0.6  
Since 1 September snowfall 0.6  
Snow Depth -    
Sea Level Pressure  
Sea Level Pressure 30.08 in    
Wind  
Wind Speed 11 mph (South)    
Max Wind Speed 14 mph    
Max Gust Speed 22 mph    
Visibility 10 miles    
Events      
T = Trace of Precipitation, MM = Missing Value Source: NWS Daily Summary

Daily Weather History Graph

Daily Weather History Graph

Search for Another Location

Airport:

Trip Planner

Search our weather history database for the weather conditions in past years. The results will help you decide how hot, cold, wet, or windy it might be!

Date:

Astronomy

Nov. 30, 2012 Rise Set
Actual Time 6:58 AM CST 4:34 PM CST
Civil Twilight 6:28 AM CST 5:03 PM CST
Nautical Twilight 5:55 AM CST 5:37 PM CST
Astronomical Twilight 5:22 AM CST 6:09 PM CST
Moon 6:28 PM CST (11/30) 8:30 AM CST (11/30)
Length of Visible Light 10h 35m
Length of Day
9h 35m
Waning Gibbous, 96% of the Moon is Illuminated
Nov 30
Waning Gibbous
Dec 6
Last Quarter
Dec 13
New
Dec 19
First Quarter
Dec 28
Full

Hourly Weather History & Observations

Time (CST) Temp. Windchill Dew Point Humidity Pressure Visibility Wind Dir Wind Speed Gust Speed Precip Events Conditions
12:15 AM 41.0 °F 34.3 °F 32.0 °F 70% 30.10 in 10.0 mi South 11.5 mph - N/A   Clear
12:35 AM 39.2 °F 32.0 °F 32.0 °F 75% 30.09 in 10.0 mi South 11.5 mph - N/A   Clear
12:55 AM 39.2 °F 33.0 °F 30.2 °F 70% 30.10 in 10.0 mi South 9.2 mph - N/A   Clear
1:15 AM 37.4 °F 30.8 °F 30.2 °F 75% 30.10 in 10.0 mi South 9.2 mph - N/A   Clear
1:35 AM 37.4 °F 30.8 °F 30.2 °F 75% 30.10 in 10.0 mi South 9.2 mph - N/A   Clear
1:55 AM 37.4 °F 30.8 °F 30.2 °F 75% 30.10 in 10.0 mi South 9.2 mph - N/A   Clear
2:15 AM 37.4 °F 29.8 °F 30.2 °F 75% 30.10 in 10.0 mi South 11.5 mph - N/A   Clear
2:35 AM 39.2 °F 31.6 °F 30.2 °F 70% 30.10 in 10.0 mi South 12.7 mph - N/A   Clear
2:55 AM 39.2 °F 31.6 °F 30.2 °F 70% 30.10 in 10.0 mi South 12.7 mph - N/A   Clear
3:15 AM 39.2 °F 32.0 °F 30.2 °F 70% 30.10 in 10.0 mi South 11.5 mph - N/A   Clear
3:35 AM 39.2 °F 32.0 °F 30.2 °F 70% 30.09 in 10.0 mi South 11.5 mph - N/A   Clear
3:55 AM 35.6 °F 28.6 °F 30.2 °F 81% 30.09 in 10.0 mi South 9.2 mph - N/A   Clear
4:15 AM 35.6 °F 28.0 °F 30.2 °F 81% 30.08 in 10.0 mi South 10.4 mph - N/A   Clear
4:35 AM 37.4 °F 30.3 °F 30.2 °F 75% 30.08 in 10.0 mi South 10.4 mph - N/A   Clear
4:55 AM 37.4 °F 29.8 °F 30.2 °F 75% 30.08 in 10.0 mi South 11.5 mph - N/A   Clear
5:15 AM 37.4 °F 30.3 °F 30.2 °F 75% 30.08 in 10.0 mi South 10.4 mph - N/A   Clear
5:35 AM 37.4 °F 30.8 °F 30.2 °F 75% 30.08 in 10.0 mi South 9.2 mph - N/A   Clear
5:55 AM 37.4 °F 30.3 °F 30.2 °F 75% 30.08 in 10.0 mi South 10.4 mph - N/A   Clear
6:15 AM 37.4 °F 29.8 °F 30.2 °F 75% 30.08 in 10.0 mi South 11.5 mph - N/A   Clear
6:35 AM 39.2 °F 32.0 °F 30.2 °F 70% 30.09 in 10.0 mi South 11.5 mph - N/A   Clear
6:55 AM 39.2 °F 31.6 °F 30.2 °F 70% 30.08 in 10.0 mi South 12.7 mph - N/A   Clear
7:15 AM 39.2 °F 31.6 °F 30.2 °F 70% 30.08 in 10.0 mi South 12.7 mph - N/A   Clear
7:35 AM 39.2 °F 31.6 °F 30.2 °F 70% 30.09 in 10.0 mi South 12.7 mph - N/A   Clear
7:55 AM 39.2 °F 31.6 °F 30.2 °F 70% 30.09 in 10.0 mi South 12.7 mph - N/A   Clear
8:15 AM 41.0 °F 33.9 °F 30.2 °F 65% 30.09 in 10.0 mi South 12.7 mph - N/A   Clear
8:35 AM 42.8 °F 36.6 °F 32.0 °F 66% 30.10 in 10.0 mi South 11.5 mph 17.3 mph N/A   Clear
8:55 AM 44.6 °F 38.8 °F 32.0 °F 61% 30.10 in 10.0 mi South 11.5 mph - N/A   Clear
9:15 AM 46.4 °F 40.4 °F 33.8 °F 62% 30.10 in 10.0 mi SSW 13.8 mph 18.4 mph N/A   Clear
9:35 AM 48.2 °F - 33.8 °F 58% 30.10 in 10.0 mi SSW 13.8 mph - N/A   Clear
9:55 AM 50.0 °F - 33.8 °F 54% 30.10 in 10.0 mi SSW 12.7 mph 21.9 mph N/A   Clear
10:15 AM 51.8 °F - 33.8 °F 50% 30.10 in 10.0 mi SSW 11.5 mph 18.4 mph N/A   Clear
10:35 AM 53.6 °F - 35.6 °F 51% 30.10 in 10.0 mi SSW 12.7 mph - N/A   Clear
10:55 AM 55.4 °F - 35.6 °F 47% 30.10 in 10.0 mi SW 10.4 mph 18.4 mph N/A   Clear
11:15 AM 55.4 °F - 35.6 °F 47% 30.09 in 10.0 mi SW 12.7 mph 17.3 mph N/A   Clear
11:35 AM 55.4 °F - 35.6 °F 47% 30.08 in 10.0 mi WSW 12.7 mph 17.3 mph N/A   Clear
11:55 AM 57.2 °F - 37.4 °F 48% 30.07 in 10.0 mi SSW 12.7 mph - N/A   Clear
12:15 PM 59.0 °F - 37.4 °F 45% 30.06 in 10.0 mi SSW 11.5 mph - N/A   Clear
12:35 PM 59.0 °F - 37.4 °F 45% 30.05 in 10.0 mi SW 11.5 mph - N/A   Clear
12:55 PM 60.8 °F - 37.4 °F 42% 30.05 in 10.0 mi South 9.2 mph - N/A   Clear
1:15 PM 60.8 °F - 37.4 °F 42% 30.05 in 10.0 mi SSW 12.7 mph - N/A   Clear
1:35 PM 60.8 °F - 37.4 °F 42% 30.05 in 10.0 mi SSW 10.4 mph - N/A   Clear
1:55 PM 60.8 °F - 39.2 °F 45% 30.04 in 10.0 mi SW 11.5 mph - N/A   Clear
2:15 PM 60.8 °F - 39.2 °F 45% 30.04 in 10.0 mi SW 10.4 mph - N/A   Clear
2:35 PM 60.8 °F - 39.2 °F 45% 30.05 in 10.0 mi South 10.4 mph - N/A   Clear
2:55 PM 60.8 °F - 39.2 °F 45% 30.05 in 10.0 mi South 10.4 mph - N/A   Clear
3:15 PM 59.0 °F - 39.2 °F 48% 30.06 in 10.0 mi South 11.5 mph - N/A   Clear
3:35 PM 55.4 °F - 39.2 °F 54% 30.06 in 10.0 mi South 10.4 mph - N/A   Clear
3:55 PM 55.4 °F - 39.2 °F 54% 30.06 in 10.0 mi South 9.2 mph - N/A   Clear
4:15 PM 53.6 °F - 39.2 °F 58% 30.07 in 10.0 mi South 10.4 mph - N/A   Clear
4:35 PM 51.8 °F - 39.2 °F 62% 30.07 in 10.0 mi South 8.1 mph - N/A   Clear
4:55 PM 51.8 °F - 39.2 °F 62% 30.08 in 10.0 mi South 8.1 mph - N/A   Clear
5:15 PM 48.2 °F - 39.2 °F 71% 30.08 in 10.0 mi SSE 8.1 mph - N/A   Clear
5:35 PM 48.2 °F - 39.2 °F 71% 30.09 in 10.0 mi SSE 8.1 mph - N/A   Clear
5:55 PM 48.2 °F - 39.2 °F 71% 30.09 in 10.0 mi SSE 8.1 mph - N/A   Clear
6:15 PM 46.4 °F 43.5 °F 37.4 °F 71% 30.10 in 10.0 mi SSE 5.8 mph - N/A   Clear
6:35 PM 46.4 °F 42.9 °F 37.4 °F 71% 30.10 in 10.0 mi SSE 6.9 mph - N/A   Clear
6:55 PM 46.4 °F 42.9 °F 37.4 °F 71% 30.10 in 10.0 mi SSE 6.9 mph - N/A   Clear
7:15 PM 44.6 °F 40.2 °F 37.4 °F 76% 30.10 in 10.0 mi South 8.1 mph - N/A   Clear
7:35 PM 46.4 °F 42.9 °F 37.4 °F 71% 30.10 in 10.0 mi SSE 6.9 mph - N/A   Clear
7:55 PM 44.6 °F 40.7 °F 37.4 °F 76% 30.10 in 10.0 mi SSE 6.9 mph - N/A   Clear
8:15 PM 46.4 °F 42.9 °F 37.4 °F 71% 30.10 in 10.0 mi SSE 6.9 mph - N/A   Clear
8:35 PM 44.6 °F 40.7 °F 37.4 °F 76% 30.09 in 10.0 mi SE 6.9 mph - N/A   Clear
8:55 PM 44.6 °F 40.7 °F 37.4 °F 76% 30.09 in 10.0 mi SSE 6.9 mph - N/A   Clear
9:15 PM 44.6 °F 40.7 °F 37.4 °F 76% 30.09 in 10.0 mi SSE 6.9 mph - N/A   Clear
9:35 PM 44.6 °F 40.2 °F 37.4 °F 76% 30.09 in 10.0 mi SSE 8.1 mph - N/A   Clear
9:55 PM 44.6 °F 39.7 °F 39.2 °F 81% 30.08 in 10.0 mi South 9.2 mph - N/A   Clear
10:15 PM 44.6 °F 40.2 °F 39.2 °F 81% 30.09 in 10.0 mi South 8.1 mph - N/A   Clear
10:35 PM 44.6 °F 39.7 °F 39.2 °F 81% 30.09 in 10.0 mi South 9.2 mph - N/A   Clear
10:55 PM 44.6 °F 40.2 °F 39.2 °F 81% 30.10 in 10.0 mi South 8.1 mph - N/A   Clear
11:15 PM 44.6 °F 39.7 °F 39.2 °F 81% 30.09 in 10.0 mi South 9.2 mph - N/A   Clear
11:35 PM 44.6 °F 39.7 °F 39.2 °F 81% 30.10 in 10.0 mi South 9.2 mph - N/A   Clear
11:55 PM 42.8 °F 37.5 °F 39.2 °F 87% 30.10 in 10.0 mi South 9.2 mph - N/A   Clear